Denver, CO

12:17 AM MDT on June 24, 2017 (GMT -0600)
Front Range

Weather History for KFTG - March, 2013

Change the Weather History Date:

Tuesday, March 12, 2013

  Actual Average (KBKF) Record (KBKF)
Temperature  
Mean Temperature 29 °F -  
Max Temperature 32 °F 50 °F 69 °F (1997)
Min Temperature 26 °F 26 °F 17 °F (2014)
Degree Days  
Heating Degree Days 36    
Moisture  
Dew Point 28 °F    
Average Humidity 94    
Maximum Humidity 100    
Minimum Humidity 80    
Precipitation  
Precipitation 0.00 in - - ()
Sea Level Pressure  
Sea Level Pressure 30.21 in    
Wind  
Wind Speed 4 mph (East)    
Max Wind Speed 15 mph    
Max Gust Speed -    
Visibility 8 miles    
Events Snow    
Averages and records for this station are not official NWS values.
T = Trace of Precipitation, MM = Missing Value Source: NWS Daily Summary

Daily Weather History Graph

Daily Weather History Graph

Search for Another Location

Airport or City:

Trip Planner

Search our weather history database for the weather conditions in past years. The results will help you decide how hot, cold, wet, or windy it might be!

Date:

Astronomy

Mar. 12, 2013 Rise Set
Actual Time 7:13 AM MDT 7:02 PM MDT
Civil Twilight 6:47 AM MDT 7:29 PM MDT
Nautical Twilight 6:15 AM MDT 8:00 PM MDT
Astronomical Twilight 5:44 AM MDT 8:32 PM MDT
Moon 7:22 AM MDT (3/12) 8:19 PM MDT (3/12)
Length of Visible Light 12h 42m
Length of Day
11h 48m
New Moon, 1% of the Moon is Illuminated
Mar 12
New Moon
Mar 19
First Quarter
Mar 27
Full
Apr 2
Last Quarter
Apr 10
New

Hourly Weather History & Observations

Time (MDT) Temp. Windchill Dew Point Humidity Pressure Visibility Wind Dir Wind Speed Gust Speed Precip Events Conditions
12:16 AM 32.0 °F - 32.0 °F 100% 30.14 in 1.0 mi Calm Calm - N/A Snow Snow
12:36 AM 32.0 °F - 32.0 °F 100% 30.14 in 7.0 mi Calm Calm - N/A Snow Light Snow
12:56 AM 32.0 °F 28.7 °F 30.2 °F 93% 30.14 in 7.0 mi SSW 3.5 mph - N/A   Overcast
1:16 AM 32.0 °F - 32.0 °F 100% 30.14 in 10.0 mi Calm Calm - N/A   Overcast
1:35 AM 32.0 °F - 32.0 °F 100% 30.15 in 10.0 mi Calm Calm - N/A   Overcast
1:56 AM 32.0 °F - 30.2 °F 93% 30.16 in 10.0 mi Calm Calm - N/A   Overcast
2:16 AM 32.0 °F - 32.0 °F 100% 30.16 in 10.0 mi Calm Calm - N/A   Overcast
2:36 AM 32.0 °F - 32.0 °F 100% 30.17 in 7.0 mi Calm Calm - N/A Snow Light Snow
2:56 AM 30.2 °F 20.2 °F 30.2 °F 100% 30.18 in 4.0 mi NE 12.7 mph - N/A Snow Light Snow
3:16 AM 30.2 °F 20.2 °F 28.4 °F 93% 30.18 in 10.0 mi NE 12.7 mph - N/A   Overcast
3:36 AM 30.2 °F 20.2 °F 28.4 °F 93% 30.18 in 10.0 mi NE 12.7 mph - N/A   Overcast
3:56 AM 30.2 °F 19.3 °F 30.2 °F 100% 30.17 in 3.0 mi NE 15.0 mph - N/A   Overcast
4:16 AM 28.4 °F 18.5 °F 28.4 °F 100% 30.18 in 7.0 mi ENE 11.5 mph - N/A   Overcast
4:36 AM 28.4 °F 19.7 °F 28.4 °F 100% 30.19 in 10.0 mi ENE 9.2 mph - N/A   Overcast
4:57 AM 28.4 °F 20.4 °F 28.4 °F 100% 30.20 in 10.0 mi East 8.1 mph - N/A   Overcast
5:16 AM 28.4 °F 21.2 °F 28.4 °F 100% 30.20 in 10.0 mi East 6.9 mph - N/A   Overcast
5:36 AM 28.4 °F 22.2 °F 28.4 °F 100% 30.21 in 7.0 mi East 5.8 mph - N/A   Overcast
5:56 AM 28.4 °F 22.2 °F 28.4 °F 100% 30.23 in 5.0 mi ENE 5.8 mph - N/A Snow Light Snow
6:17 AM 30.2 °F 25.4 °F 28.4 °F 93% 30.22 in 4.0 mi ESE 4.6 mph - N/A Snow Light Snow
6:37 AM 30.2 °F 26.7 °F 28.4 °F 93% 30.23 in 3.0 mi SE 3.5 mph - N/A Snow Light Snow
6:57 AM 28.4 °F 19.1 °F 26.6 °F 93% 30.24 in 5.0 mi NNE 10.4 mph - N/A Snow Light Snow
7:17 AM 26.6 °F 17.5 °F 24.8 °F 93% 30.25 in 10.0 mi NNE 9.2 mph - N/A   Overcast
7:37 AM 26.6 °F 18.2 °F 24.8 °F 93% 30.26 in 7.0 mi NE 8.1 mph - N/A   Overcast
7:39 AM 26.6 °F 18.2 °F 24.8 °F 93% 30.26 in 7.0 mi NE 8.1 mph - N/A   Overcast
8:55 AM 26.6 °F - 24.8 °F 93% 30.28 in 10.0 mi Calm Calm - N/A   Overcast
9:50 AM 26.6 °F 21.2 °F 23.0 °F 86% 30.29 in 10.0 mi East 4.6 mph - N/A   Overcast
10:49 AM 28.4 °F 21.2 °F 23.0 °F 80% 30.30 in 10.0 mi East 6.9 mph - N/A   Overcast
11:48 AM 28.4 °F 19.7 °F 24.8 °F 86% 30.29 in 10.0 mi East 9.2 mph - N/A   Overcast
12:49 PM 30.2 °F 22.6 °F 24.8 °F 80% 30.29 in 10.0 mi ESE 8.1 mph - N/A   Mostly Cloudy
1:52 PM 32.0 °F 24.2 °F 26.6 °F 80% 30.27 in 20.0 mi SE 9.2 mph - N/A   Mostly Cloudy
9:16 PM 32.0 °F 26.4 °F 30.2 °F 93% 30.20 in 10.0 mi South 5.8 mph - N/A   Clear
9:37 PM 32.0 °F 26.4 °F 30.2 °F 93% 30.20 in 10.0 mi South 5.8 mph - N/A   Clear
9:56 PM 32.0 °F 27.5 °F 28.4 °F 87% 30.20 in 10.0 mi SSW 4.6 mph - N/A   Clear
10:16 PM 32.0 °F - 28.4 °F 87% 30.20 in 10.0 mi Calm Calm - N/A   Clear
10:36 PM 32.0 °F - 28.4 °F 87% 30.22 in 10.0 mi Calm Calm - N/A   Clear
10:56 PM 32.0 °F 28.7 °F 28.4 °F 87% 30.22 in 10.0 mi WNW 3.5 mph - N/A   Clear
11:56 PM 30.2 °F 25.4 °F 28.4 °F 93% 30.22 in 10.0 mi West 4.6 mph - N/A   Clear